Regional Weather Roundup
Issued by NWS

Home | Current Version | Previous Version | Graphics & Text | Print | Product List | Glossary Off
Versions: 1 2 3 4 5 6 7 8 9 10 11 12 13 14 15 16 17 18 19 20 21 22 23 24 25 26 27 28 29 30 31 32 33 34 35 36 37 38 39 40 41 42 43 44 45 46 47 48 49 50

000
ASUS43 KDTX 031901
RWRMI
MICHIGAN HOURLY REGIONAL WEATHER ROUNDUP
NATIONAL WEATHER SERVICE DETROIT/PONTIAC MI
300 PM EDT MON AUG 03 2015

NOTE: "FAIR" INDICATES FEW OR NO CLOUDS BELOW 12,000 FEET WITH NO
SIGNIFICANT WEATHER AND/OR OBSTRUCTION TO VISIBILITY.

MIZ047>049-052>055-059>063-066>070-074>076-081>083-032000-
SOUTHEAST LOWER MICHIGAN

CITY           SKY/WX    TMP DP  RH WIND       PRES   REMARKS
ADRIAN         MOSUNNY   78  60  53 W13       29.81F
ALMA           PTSUNNY   77  52  41 W9        29.79S
ANN ARBOR      MOSUNNY   80  58  46 W14       29.78F
BAD AXE        CLOUDY    68  59  74 CALM      29.78F
CARO           PTSUNNY   76  60  57 NW15G21   29.77S
DETROIT CITY   SUNNY     78  55  44 SW13G18   29.77F
DETROIT        MOSUNNY   82  58  43 SW14G24   29.79F
FLINT          PTSUNNY   74  63  68 SW7       29.79S
GROSSE ILE     MOSUNNY   82  61  47 W9G16     29.77F
HILLSDALE      SUNNY     80  60  49 W13G20    29.82F
HOWELL         CLOUDY    70  63  79 W6        29.81R

CITY           SKY/WX    TMP DP  RH WIND       PRES   REMARKS
JACKSON        MOSUNNY   78  56  46 W18G24    29.80F
LAMBERTVILLE   MOSUNNY   82  62  51 W8G16     29.81F
LANSING        MOSUNNY   77  57  50 NW14G23   29.80S
LAPEER         PTSUNNY   75  55  49 W8        29.79S
MASON          MOSUNNY   75  59  57 NW8       29.80S
MONROE         PTSUNNY   80  65  59 W12       29.79S
MT. CLEMENS    PTSUNNY   80  58  46 W12G17    29.75F
PONTIAC        CLOUDY    75  59  57 W10       29.78S
PORT HURON     CLOUDY    75  59  57 NW3       29.77F
TRI CITIES     PTSUNNY   79  53  40 W16G22    29.78S
MIDLAND        FAIR      78  50  37 NW12G18   29.76S
TROY           CLOUDY    78  57  47 NW7       29.79
SAGINAW HB     MOSUNNY   77  55  47 W15       29.76S
$$
MIZ043>046-050>051-056>058-064>065-071>073-077>080-032000-
SOUTHWEST LOWER MICHIGAN

CITY           SKY/WX    TMP DP  RH WIND       PRES   REMARKS
BATTLE CREEK     N/A    N/A N/A N/A MISG      29.83S
BENTON HARBOR  SUNNY     75  54  47 VRB7      29.86S
BIG RAPIDS     SUNNY     76  43  30 W18       29.79F
COLDWATER      MOSUNNY   77  56  47 W15G24    29.83R
FREMONT        PTSUNNY   76  49  37 W16       29.80F
HOLLAND        SUNNY     76  54  46 W12       29.84F
GRAND RAPIDS   MOSUNNY   78  48  34 W20G25    29.82R
IONIA          FAIR      79  50  37 NW16      29.79F
KALAMAZOO      SUNNY     79  51  37 NW16G26   29.83S
LUDINGTON      SUNNY     73  57  57 W6        29.82S
MARSHALL       MOSUNNY   80  55  41 W16G25    29.81S
MOUNT PLEASANT PTSUNNY   80  49  33 W12G18    29.78S
MUSKEGON       MOSUNNY   75  58  55 W12       29.82F
SOUTH HAVEN    SUNNY     75  53  45 NW8       29.85S
$$
MIZ016>042-032000-
NORTHERN LOWER MICHIGAN

CITY           SKY/WX    TMP DP  RH WIND       PRES   REMARKS
ALPENA         CLOUDY    72  55  55 NW7       29.74R
BEAVER ISLAND  CLOUDY    66  54  65 W8        29.77R
BELLAIRE       MOSUNNY   71  50  46 NW12G17   29.78R
CADILLAC       CLOUDY    70  52  52 W10       29.80S
CHARLEVOIX     SUNNY     71  53  53 W10G17    29.80S
FRANKFORT      SUNNY     71  57  61 W8        29.80S
GAYLORD        PTSUNNY   71  50  47 W9G17     29.77S
GRAYLING       CLOUDY    71  51  48 NW12G18   29.79S
HARBOR SPRINGS PTSUNNY   69  55  62 W9        29.76S
HOUGHTON LAKE  CLOUDY    71  52  50 NW13      29.79S
MANISTEE       SUNNY     70  52  52 W8        29.82S
OSCODA         CLOUDY    73  56  53 W12       29.74R
PELLSTON       PTSUNNY   72  51  47 NW20      29.75S
ROGERS CITY    PTSUNNY   70  58  65 NW8G16    29.74S
TRAVERSE CITY  PTSUNNY   75  49  39 W12G22    29.76S
$$
MIZ007>008-015-032000-
EASTERN UPPER MICHIGAN

CITY           SKY/WX    TMP DP  RH WIND       PRES   REMARKS
KINROSS        CLOUDY    63  55  77 W10       29.74R
MACKINAC ISLAN CLOUDY    67  53  60 W20       29.75R
NEWBERRY       CLOUDY    64  52  65 W9G16     29.75R
S. S. MARIE    PTSUNNY   67  52  58 NW10G21   29.72S
MUNISING         N/A     67  56  67 N12       29.76S
$$
MIZ004>006-011>014-085-032000-
CENTRAL UPPER MICHIGAN

CITY           SKY/WX    TMP DP  RH WIND       PRES   REMARKS
ESCANABA       CLOUDY    72  52  49 W6        29.74R
MENOMINEE      PTSUNNY   73  50  43 NW6G16    29.76S
SAWYER-GWINN   PTSUNNY   66  52  59 NW15      29.77R
$$
MIZ001>003-009>011-084-032000-
WESTERN UPPER MICHIGAN

CITY           SKY/WX    TMP DP  RH WIND       PRES   REMARKS
IRON MOUNTAIN  LGT RAIN  64  55  72 NW13G22   29.79R
HOUGHTON       CLOUDY    64  52  64 W14       29.77S
COPPER HARBOR    N/A     68  53  58 N14G20    29.74S
IRONWOOD       CLOUDY    66  54  63 W14G22    29.80F
$$

ABBREVIATIONS USED IN REMARKS
   TC - TEMPERATURE IN CELSIUS
  WCI - WIND CHILL INDEX
   HX - HEAT INDEX
  VSB - VISIBILITY




USA.gov is the U.S. government's official web portal to all federal, state and local government web resources and services.